Time,TemperatureF,DewpointF,PressureIn,WindDirection,WindDirectionDegrees,WindSpeedMPH,WindSpeedGustMPH,Humidity,HourlyPrecipIn,Conditions,Clouds,dailyrainin,SoftwareType,DateUTC
2013-01-07 00:00:00,36.8,30.9,29.97,South,183,0.0,4.0,79,0.00,,,0.00,org.tom.weather,2013-01-07 05:00:00,
2013-01-07 00:01:00,36.7,30.8,29.97,South,183,2.0,3.0,79,0.00,,,0.00,org.tom.weather,2013-01-07 05:01:00,
2013-01-07 00:06:00,36.7,30.8,29.97,SW,232,3.0,3.0,79,0.00,,,0.00,org.tom.weather,2013-01-07 05:06:00,
2013-01-07 00:11:00,36.6,30.7,29.97,SSW,208,1.0,5.0,79,0.00,,,0.00,org.tom.weather,2013-01-07 05:11:00,
2013-01-07 00:16:00,36.6,30.7,29.97,SSW,213,2.0,3.0,79,0.00,,,0.00,org.tom.weather,2013-01-07 05:16:00,
2013-01-07 00:21:00,36.5,30.6,29.98,SSW,213,0.0,3.0,79,0.00,,,0.00,org.tom.weather,2013-01-07 05:21:00,
2013-01-07 00:26:00,36.5,30.6,29.98,SW,225,0.0,5.0,79,0.00,,,0.00,org.tom.weather,2013-01-07 05:26:00,
2013-01-07 00:31:00,36.3,30.4,29.98,SW,223,0.0,4.0,79,0.00,,,0.00,org.tom.weather,2013-01-07 05:31:00,
2013-01-07 00:36:00,36.2,30.3,29.98,SW,223,0.0,4.0,79,0.00,,,0.00,org.tom.weather,2013-01-07 05:36:00,
2013-01-07 00:41:00,36.0,30.4,29.98,SW,219,0.0,5.0,80,0.00,,,0.00,org.tom.weather,2013-01-07 05:41:00,
2013-01-07 00:46:00,35.9,30.3,29.98,SW,219,0.0,5.0,80,0.00,,,0.00,org.tom.weather,2013-01-07 05:46:00,
2013-01-07 00:51:00,35.8,30.2,29.99,SW,221,2.0,4.0,80,0.00,,,0.00,org.tom.weather,2013-01-07 05:51:00,
2013-01-07 00:56:00,35.6,30.1,29.99,South,179,6.0,6.0,80,0.00,,,0.00,org.tom.weather,2013-01-07 05:56:00,
2013-01-07 01:01:00,35.4,30.2,29.99,SW,220,1.0,7.0,81,0.00,,,0.00,org.tom.weather,2013-01-07 06:01:00,
2013-01-07 01:06:00,35.2,30.0,29.99,SW,229,0.0,7.0,81,0.00,,,0.00,org.tom.weather,2013-01-07 06:06:00,
2013-01-07 01:11:00,35.1,29.9,29.99,SSW,211,1.0,4.0,81,0.00,,,0.00,org.tom.weather,2013-01-07 06:11:00,
2013-01-07 01:16:00,35.0,30.1,29.99,SSW,208,0.0,5.0,82,0.00,,,0.00,org.tom.weather,2013-01-07 06:16:00,
2013-01-07 01:21:00,35.0,30.1,29.99,SSW,211,3.0,5.0,82,0.00,,,0.00,org.tom.weather,2013-01-07 06:21:00,
2013-01-07 01:27:00,34.9,29.7,29.99,West,281,0.0,5.0,81,0.00,,,0.00,org.tom.weather,2013-01-07 06:27:00,
2013-01-07 01:32:00,34.8,29.9,30.00,SSW,206,0.0,2.0,82,0.00,,,0.00,org.tom.weather,2013-01-07 06:32:00,
2013-01-07 01:36:00,34.7,29.8,30.00,SSW,198,0.0,2.0,82,0.00,,,0.00,org.tom.weather,2013-01-07 06:36:00,
2013-01-07 01:41:00,34.6,29.7,30.00,SSW,202,0.0,3.0,82,0.00,,,0.00,org.tom.weather,2013-01-07 06:41:00,
2013-01-07 01:46:00,34.4,29.5,30.00,SSW,202,2.0,3.0,82,0.00,,,0.00,org.tom.weather,2013-01-07 06:46:00,
2013-01-07 01:51:00,34.5,29.6,30.00,SW,235,0.0,4.0,82,0.00,,,0.00,org.tom.weather,2013-01-07 06:51:00,
2013-01-07 01:56:00,34.4,29.8,30.00,SW,235,0.0,4.0,83,0.00,,,0.00,org.tom.weather,2013-01-07 06:56:00,
2013-01-07 02:01:00,34.3,29.7,30.00,SW,233,1.0,4.0,83,0.00,,,0.00,org.tom.weather,2013-01-07 07:01:00,
2013-01-07 02:06:00,34.2,29.6,30.01,SW,223,0.0,4.0,83,0.00,,,0.00,org.tom.weather,2013-01-07 07:06:00,
2013-01-07 02:11:00,34.3,29.7,30.01,SSW,192,2.0,4.0,83,0.00,,,0.00,org.tom.weather,2013-01-07 07:11:00,
2013-01-07 02:16:00,34.3,29.7,30.01,SSW,192,0.0,2.0,83,0.00,,,0.00,org.tom.weather,2013-01-07 07:16:00,
2013-01-07 02:22:00,34.3,29.7,30.01,SW,216,0.0,3.0,83,0.00,,,0.00,org.tom.weather,2013-01-07 07:22:00,
2013-01-07 02:27:00,34.2,29.6,30.01,SW,216,0.0,3.0,83,0.00,,,0.00,org.tom.weather,2013-01-07 07:27:00,
2013-01-07 02:32:00,34.2,29.6,30.01,SW,223,1.0,3.0,83,0.00,,,0.00,org.tom.weather,2013-01-07 07:32:00,
2013-01-07 02:37:00,34.1,29.5,30.01,WSW,248,1.0,3.0,83,0.00,,,0.00,org.tom.weather,2013-01-07 07:37:00,
2013-01-07 02:41:00,34.1,29.5,30.01,WSW,249,1.0,4.0,83,0.00,,,0.00,org.tom.weather,2013-01-07 07:41:00,
2013-01-07 02:46:00,34.0,29.4,30.01,West,262,0.0,5.0,83,0.00,,,0.00,org.tom.weather,2013-01-07 07:46:00,
2013-01-07 02:52:00,34.0,29.7,30.01,WNW,285,2.0,6.0,84,0.00,,,0.00,org.tom.weather,2013-01-07 07:52:00,
2013-01-07 02:57:00,33.9,29.6,30.01,SW,222,0.0,4.0,84,0.00,,,0.00,org.tom.weather,2013-01-07 07:57:00,
2013-01-07 03:02:00,33.9,29.6,30.01,NW,319,3.0,5.0,84,0.00,,,0.00,org.tom.weather,2013-01-07 08:02:00,
2013-01-07 03:07:00,33.8,29.5,30.01,SW,236,1.0,5.0,84,0.00,,,0.00,org.tom.weather,2013-01-07 08:07:00,
2013-01-07 03:12:00,33.8,29.5,30.01,WNW,290,0.0,7.0,84,0.00,,,0.00,org.tom.weather,2013-01-07 08:12:00,
2013-01-07 03:17:00,33.7,29.4,30.01,SW,216,0.0,3.0,84,0.00,,,0.00,org.tom.weather,2013-01-07 08:17:00,
2013-01-07 03:21:00,33.5,29.5,30.01,WSW,258,2.0,3.0,85,0.00,,,0.00,org.tom.weather,2013-01-07 08:21:00,
2013-01-07 03:27:00,33.4,29.4,30.01,West,260,0.0,4.0,85,0.00,,,0.00,org.tom.weather,2013-01-07 08:27:00,
2013-01-07 03:32:00,33.3,29.3,30.01,WNW,300,1.0,4.0,85,0.00,,,0.00,org.tom.weather,2013-01-07 08:32:00,
2013-01-07 03:37:00,33.2,29.2,30.01,West,277,0.0,4.0,85,0.00,,,0.00,org.tom.weather,2013-01-07 08:37:00,
2013-01-07 03:42:00,33.2,29.5,30.01,West,265,3.0,4.0,86,0.00,,,0.00,org.tom.weather,2013-01-07 08:42:00,
2013-01-07 03:47:00,33.2,29.2,30.01,NNW,343,1.0,4.0,85,0.00,,,0.00,org.tom.weather,2013-01-07 08:47:00,
2013-01-07 03:52:00,33.1,29.4,30.02,NW,319,2.0,5.0,86,0.00,,,0.00,org.tom.weather,2013-01-07 08:52:00,
2013-01-07 03:57:00,33.1,29.4,30.02,NW,321,1.0,5.0,86,0.00,,,0.00,org.tom.weather,2013-01-07 08:57:00,
2013-01-07 04:02:00,33.0,29.3,30.02,West,279,1.0,4.0,86,0.00,,,0.00,org.tom.weather,2013-01-07 09:02:00,
2013-01-07 04:07:00,33.0,29.3,30.02,West,263,0.0,4.0,86,0.00,,,0.00,org.tom.weather,2013-01-07 09:07:00,
2013-01-07 04:12:00,32.9,29.2,30.03,WSW,258,0.0,3.0,86,0.00,,,0.00,org.tom.weather,2013-01-07 09:12:00,
2013-01-07 04:17:00,32.8,29.1,30.03,NW,309,1.0,4.0,86,0.00,,,0.00,org.tom.weather,2013-01-07 09:17:00,
2013-01-07 04:22:00,32.8,29.1,30.03,NW,309,2.0,2.0,86,0.00,,,0.00,org.tom.weather,2013-01-07 09:22:00,
2013-01-07 04:27:00,32.7,29.0,30.03,West,276,1.0,4.0,86,0.00,,,0.00,org.tom.weather,2013-01-07 09:27:00,
2013-01-07 04:32:00,32.7,29.3,30.03,WNW,289,1.0,4.0,87,0.00,,,0.00,org.tom.weather,2013-01-07 09:32:00,
2013-01-07 04:37:00,32.7,29.3,30.03,West,259,1.0,4.0,87,0.00,,,0.00,org.tom.weather,2013-01-07 09:37:00,
2013-01-07 04:42:00,32.7,29.3,30.04,West,276,0.0,2.0,87,0.00,,,0.00,org.tom.weather,2013-01-07 09:42:00,
2013-01-07 04:47:00,32.8,29.4,30.04,WNW,289,0.0,3.0,87,0.00,,,0.00,org.tom.weather,2013-01-07 09:47:00,
2013-01-07 04:52:00,32.8,29.4,30.04,WNW,290,0.0,2.0,87,0.00,,,0.00,org.tom.weather,2013-01-07 09:52:00,
2013-01-07 04:57:00,32.9,29.5,30.04,West,271,1.0,4.0,87,0.00,,,0.00,org.tom.weather,2013-01-07 09:57:00,
2013-01-07 05:02:00,32.9,29.5,30.04,West,270,1.0,3.0,87,0.00,,,0.00,org.tom.weather,2013-01-07 10:02:00,
2013-01-07 05:07:00,33.0,29.6,30.05,West,273,3.0,6.0,87,0.00,,,0.00,org.tom.weather,2013-01-07 10:07:00,
2013-01-07 05:12:00,33.0,29.6,30.05,WNW,282,0.0,6.0,87,0.00,,,0.00,org.tom.weather,2013-01-07 10:12:00,
2013-01-07 05:17:00,32.9,29.5,30.05,WNW,292,0.0,3.0,87,0.00,,,0.00,org.tom.weather,2013-01-07 10:17:00,
2013-01-07 05:22:00,32.9,29.5,30.06,WNW,295,1.0,3.0,87,0.00,,,0.00,org.tom.weather,2013-01-07 10:22:00,
2013-01-07 05:27:00,33.0,29.6,30.06,West,279,3.0,5.0,87,0.00,,,0.00,org.tom.weather,2013-01-07 10:27:00,
2013-01-07 05:32:00,33.0,29.6,30.07,West,271,0.0,5.0,87,0.00,,,0.00,org.tom.weather,2013-01-07 10:32:00,
2013-01-07 05:37:00,33.0,29.6,30.07,WNW,294,2.0,4.0,87,0.00,,,0.00,org.tom.weather,2013-01-07 10:37:00,
2013-01-07 05:42:00,33.0,29.6,30.07,NW,315,1.0,3.0,87,0.00,,,0.00,org.tom.weather,2013-01-07 10:42:00,
2013-01-07 05:47:00,33.0,29.6,30.07,NW,311,1.0,3.0,87,0.00,,,0.00,org.tom.weather,2013-01-07 10:47:00,
2013-01-07 05:52:00,33.0,29.6,30.07,NW,312,2.0,3.0,87,0.00,,,0.00,org.tom.weather,2013-01-07 10:52:00,
2013-01-07 05:57:00,32.9,29.5,30.08,NW,312,1.0,4.0,87,0.00,,,0.00,org.tom.weather,2013-01-07 10:57:00,
2013-01-07 06:02:00,32.8,29.4,30.08,NNW,328,0.0,5.0,87,0.00,,,0.00,org.tom.weather,2013-01-07 11:02:00,
2013-01-07 06:07:00,32.7,29.3,30.08,NW,311,1.0,2.0,87,0.00,,,0.00,org.tom.weather,2013-01-07 11:07:00,
2013-01-07 06:12:00,32.6,29.5,30.09,NW,311,1.0,3.0,88,0.00,,,0.00,org.tom.weather,2013-01-07 11:12:00,
2013-01-07 06:17:00,32.5,29.4,30.09,NW,305,3.0,5.0,88,0.00,,,0.00,org.tom.weather,2013-01-07 11:17:00,
2013-01-07 06:22:00,32.5,29.4,30.09,WNW,302,0.0,4.0,88,0.00,,,0.00,org.tom.weather,2013-01-07 11:22:00,
2013-01-07 06:27:00,32.7,29.5,30.10,WNW,296,1.0,6.0,88,0.00,,,0.00,org.tom.weather,2013-01-07 11:27:00,
2013-01-07 06:32:00,32.7,29.5,30.10,WNW,296,2.0,2.0,88,0.00,,,0.00,org.tom.weather,2013-01-07 11:32:00,
2013-01-07 06:37:00,32.7,29.5,30.11,WNW,297,1.0,3.0,88,0.00,,,0.00,org.tom.weather,2013-01-07 11:37:00,
2013-01-07 06:42:00,32.8,29.6,30.11,WNW,298,3.0,3.0,88,0.00,,,0.00,org.tom.weather,2013-01-07 11:42:00,
2013-01-07 06:47:00,32.8,29.6,30.11,NW,306,0.0,4.0,88,0.00,,,0.00,org.tom.weather,2013-01-07 11:47:00,
2013-01-07 06:52:00,32.8,29.6,30.11,NW,313,2.0,5.0,88,0.00,,,0.00,org.tom.weather,2013-01-07 11:52:00,
2013-01-07 06:57:00,32.9,29.7,30.12,WNW,298,1.0,4.0,88,0.00,,,0.00,org.tom.weather,2013-01-07 11:57:00,
2013-01-07 07:02:00,33.0,29.8,30.12,NNW,344,2.0,3.0,88,0.00,,,0.00,org.tom.weather,2013-01-07 12:02:00,
2013-01-07 07:07:00,33.3,30.1,30.12,WNW,294,1.0,7.0,88,0.00,,,0.00,org.tom.weather,2013-01-07 12:07:00,
2013-01-07 07:12:00,33.5,30.3,30.13,NW,318,2.0,8.0,88,0.00,,,0.00,org.tom.weather,2013-01-07 12:12:00,
2013-01-07 07:17:00,33.8,30.6,30.13,WNW,296,1.0,7.0,88,0.00,,,0.00,org.tom.weather,2013-01-07 12:17:00,
2013-01-07 07:22:00,33.8,30.6,30.13,NW,306,0.0,7.0,88,0.00,,,0.00,org.tom.weather,2013-01-07 12:22:00,
2013-01-07 07:27:00,33.8,30.6,30.13,NW,313,3.0,7.0,88,0.00,,,0.00,org.tom.weather,2013-01-07 12:27:00,
2013-01-07 07:32:00,33.8,30.6,30.14,NNW,333,2.0,7.0,88,0.00,,,0.00,org.tom.weather,2013-01-07 12:32:00,
2013-01-07 07:37:00,33.7,30.5,30.14,NW,320,2.0,7.0,88,0.00,,,0.00,org.tom.weather,2013-01-07 12:37:00,
2013-01-07 07:42:00,33.7,30.8,30.14,West,269,2.0,7.0,89,0.00,,,0.00,org.tom.weather,2013-01-07 12:42:00,
2013-01-07 07:47:00,33.7,30.8,30.15,WNW,298,1.0,7.0,89,0.00,,,0.00,org.tom.weather,2013-01-07 12:47:00,
2013-01-07 07:52:00,33.7,30.8,30.15,NW,311,1.0,7.0,89,0.00,,,0.00,org.tom.weather,2013-01-07 12:52:00,
2013-01-07 07:57:00,33.7,30.8,30.15,WNW,298,7.0,7.0,89,0.00,,,0.00,org.tom.weather,2013-01-07 12:57:00,
2013-01-07 08:02:00,33.8,30.9,30.15,North,360,2.0,7.0,89,0.00,,,0.00,org.tom.weather,2013-01-07 13:02:00,
2013-01-07 08:07:00,33.9,31.0,30.16,NW,308,4.0,8.0,89,0.00,,,0.00,org.tom.weather,2013-01-07 13:07:00,
2013-01-07 08:12:00,34.2,31.3,30.17,NW,318,4.0,10.0,89,0.00,,,0.00,org.tom.weather,2013-01-07 13:12:00,
2013-01-07 08:17:00,34.5,31.3,30.17,NNW,334,5.0,10.0,88,0.00,,,0.00,org.tom.weather,2013-01-07 13:17:00,
2013-01-07 08:22:00,34.7,31.2,30.17,NW,324,2.0,10.0,87,0.00,,,0.00,org.tom.weather,2013-01-07 13:22:00,
2013-01-07 08:27:00,34.8,31.0,30.18,NW,325,4.0,10.0,86,0.00,,,0.00,org.tom.weather,2013-01-07 13:27:00,
2013-01-07 08:32:00,35.1,31.1,30.18,NNW,336,4.0,11.0,85,0.00,,,0.00,org.tom.weather,2013-01-07 13:32:00,
2013-01-07 08:37:00,35.5,30.9,30.19,NW,320,5.0,8.0,83,0.00,,,0.00,org.tom.weather,2013-01-07 13:37:00,
2013-01-07 08:42:00,35.7,30.8,30.20,WNW,288,5.0,12.0,82,0.00,,,0.00,org.tom.weather,2013-01-07 13:42:00,
2013-01-07 08:47:00,36.0,30.7,30.20,NNW,348,2.0,12.0,81,0.00,,,0.00,org.tom.weather,2013-01-07 13:47:00,
2013-01-07 08:52:00,36.0,30.7,30.21,West,271,3.0,11.0,81,0.00,,,0.00,org.tom.weather,2013-01-07 13:52:00,
2013-01-07 08:57:00,36.1,30.8,30.21,NNW,327,3.0,10.0,81,0.00,,,0.00,org.tom.weather,2013-01-07 13:57:00,
2013-01-07 09:02:00,36.2,30.9,30.22,NNW,333,5.0,10.0,81,0.00,,,0.00,org.tom.weather,2013-01-07 14:02:00,
2013-01-07 09:07:00,36.3,30.7,30.22,WNW,297,10.0,10.0,80,0.00,,,0.00,org.tom.weather,2013-01-07 14:07:00,
2013-01-07 09:12:00,36.4,30.5,30.22,North,5,10.0,13.0,79,0.00,,,0.00,org.tom.weather,2013-01-07 14:12:00,
2013-01-07 09:17:00,36.3,30.1,30.23,NNW,344,5.0,13.0,78,0.00,,,0.00,org.tom.weather,2013-01-07 14:17:00,
2013-01-07 09:22:00,36.4,30.5,30.23,NW,319,11.0,13.0,79,0.00,,,0.00,org.tom.weather,2013-01-07 14:22:00,
2013-01-07 09:27:00,36.4,30.2,30.24,NNW,340,6.0,13.0,78,0.00,,,0.00,org.tom.weather,2013-01-07 14:27:00,
2013-01-07 09:32:00,36.4,30.2,30.24,North,350,8.0,9.0,78,0.00,,,0.00,org.tom.weather,2013-01-07 14:32:00,
2013-01-07 09:37:00,36.4,29.9,30.25,NNW,327,8.0,13.0,77,0.00,,,0.00,org.tom.weather,2013-01-07 14:37:00,
2013-01-07 09:42:00,36.3,29.5,30.25,NW,317,4.0,14.0,76,0.00,,,0.00,org.tom.weather,2013-01-07 14:42:00,
2013-01-07 09:47:00,36.3,29.2,30.25,WNW,300,16.0,16.0,75,0.00,,,0.00,org.tom.weather,2013-01-07 14:47:00,
2013-01-07 09:52:00,36.2,28.7,30.26,NW,325,6.0,19.0,74,0.00,,,0.00,org.tom.weather,2013-01-07 14:52:00,
2013-01-07 09:57:00,36.3,29.2,30.26,North,349,5.0,13.0,75,0.00,,,0.00,org.tom.weather,2013-01-07 14:57:00,
2013-01-07 10:02:00,36.3,28.8,30.26,NW,309,6.0,15.0,74,0.00,,,0.00,org.tom.weather,2013-01-07 15:02:00,
2013-01-07 10:07:00,36.6,29.4,30.26,NNW,348,5.0,15.0,75,0.00,,,0.00,org.tom.weather,2013-01-07 15:07:00,
2013-01-07 10:12:00,36.6,30.1,30.27,North,349,4.0,9.0,77,0.00,,,0.00,org.tom.weather,2013-01-07 15:12:00,
2013-01-07 10:17:00,36.2,30.6,30.27,NNW,343,8.0,10.0,80,0.00,,,0.00,org.tom.weather,2013-01-07 15:17:00,
2013-01-07 10:22:00,36.1,30.5,30.27,North,355,3.0,9.0,80,0.00,,,0.00,org.tom.weather,2013-01-07 15:22:00,
2013-01-07 10:27:00,36.1,30.8,30.27,North,355,5.0,10.0,81,0.00,,,0.00,org.tom.weather,2013-01-07 15:27:00,
2013-01-07 10:32:00,36.2,30.9,30.27,North,355,4.0,10.0,81,0.00,,,0.00,org.tom.weather,2013-01-07 15:32:00,
2013-01-07 10:37:00,36.4,31.1,30.27,NNE,14,6.0,8.0,81,0.00,,,0.00,org.tom.weather,2013-01-07 15:37:00,
2013-01-07 10:42:00,36.4,30.8,30.27,NNE,19,4.0,10.0,80,0.00,,,0.00,org.tom.weather,2013-01-07 15:42:00,
2013-01-07 10:47:00,36.3,31.0,30.27,NNW,342,8.0,11.0,81,0.00,,,0.00,org.tom.weather,2013-01-07 15:47:00,
2013-01-07 10:52:00,35.9,30.7,30.27,NE,52,5.0,12.0,81,0.00,,,0.00,org.tom.weather,2013-01-07 15:52:00,
2013-01-07 10:57:00,35.7,30.8,30.27,NNW,346,4.0,12.0,82,0.00,,,0.00,org.tom.weather,2013-01-07 15:57:00,
2013-01-07 11:02:00,35.9,31.0,30.27,North,355,6.0,9.0,82,0.00,,,0.00,org.tom.weather,2013-01-07 16:02:00,
2013-01-07 11:07:00,35.8,30.9,30.27,NNW,334,4.0,9.0,82,0.00,,,0.00,org.tom.weather,2013-01-07 16:07:00,
2013-01-07 11:12:00,35.8,30.6,30.28,NNW,336,8.0,9.0,81,0.00,,,0.00,org.tom.weather,2013-01-07 16:12:00,
2013-01-07 11:17:00,35.9,31.3,30.28,NNE,29,6.0,8.0,83,0.00,,,0.00,org.tom.weather,2013-01-07 16:17:00,
2013-01-07 11:22:00,35.7,31.1,30.28,NNE,17,1.0,9.0,83,0.00,,,0.00,org.tom.weather,2013-01-07 16:22:00,
2013-01-07 11:27:00,35.7,31.4,30.28,NNE,30,6.0,9.0,84,0.00,,,0.00,org.tom.weather,2013-01-07 16:27:00,
2013-01-07 11:32:00,35.5,31.2,30.28,NNE,27,6.0,10.0,84,0.00,,,0.00,org.tom.weather,2013-01-07 16:32:00,
2013-01-07 11:37:00,35.4,31.1,30.28,North,5,2.0,10.0,84,0.00,,,0.00,org.tom.weather,2013-01-07 16:37:00,
2013-01-07 11:42:00,35.2,30.6,30.29,North,5,7.0,11.0,83,0.00,,,0.00,org.tom.weather,2013-01-07 16:42:00,
2013-01-07 11:47:00,35.3,31.0,30.29,NNE,25,2.0,11.0,84,0.00,,,0.00,org.tom.weather,2013-01-07 16:47:00,
2013-01-07 11:52:00,35.7,31.4,30.29,NNE,30,6.0,7.0,84,0.00,,,0.00,org.tom.weather,2013-01-07 16:52:00,
2013-01-07 11:57:00,35.7,31.1,30.29,NE,36,4.0,7.0,83,0.00,,,0.00,org.tom.weather,2013-01-07 16:57:00,
2013-01-07 12:02:00,35.6,31.0,30.29,North,355,2.0,8.0,83,0.00,,,0.00,org.tom.weather,2013-01-07 17:02:00,
2013-01-07 12:07:00,35.2,30.6,30.29,NW,323,6.0,8.0,83,0.00,,,0.00,org.tom.weather,2013-01-07 17:07:00,
2013-01-07 12:12:00,34.9,30.6,30.29,North,355,5.0,10.0,84,0.00,,,0.00,org.tom.weather,2013-01-07 17:12:00,
2013-01-07 12:17:00,34.6,30.3,30.30,NNE,26,6.0,11.0,84,0.00,,,0.00,org.tom.weather,2013-01-07 17:17:00,
2013-01-07 12:22:00,34.2,29.9,30.30,NNE,22,3.0,9.0,84,0.00,,,0.00,org.tom.weather,2013-01-07 17:22:00,
2013-01-07 12:27:00,34.4,30.1,30.31,North,11,2.0,9.0,84,0.00,,,0.00,org.tom.weather,2013-01-07 17:27:00,
2013-01-07 12:32:00,34.9,30.3,30.30,North,5,3.0,5.0,83,0.00,,,0.00,org.tom.weather,2013-01-07 17:32:00,
2013-01-07 12:37:00,35.4,30.8,30.30,North,360,5.0,6.0,83,0.00,,,0.00,org.tom.weather,2013-01-07 17:37:00,
2013-01-07 12:42:00,35.0,30.4,30.31,North,355,2.0,8.0,83,0.00,,,0.00,org.tom.weather,2013-01-07 17:42:00,
2013-01-07 12:47:00,34.9,30.3,30.31,North,360,6.0,6.0,83,0.00,,,0.00,org.tom.weather,2013-01-07 17:47:00,
2013-01-07 12:52:00,34.5,29.9,30.31,NW,320,4.0,10.0,83,0.00,,,0.00,org.tom.weather,2013-01-07 17:52:00,
2013-01-07 12:57:00,34.4,29.8,30.31,NNW,344,4.0,6.0,83,0.00,,,0.00,org.tom.weather,2013-01-07 17:57:00,
2013-01-07 13:02:00,34.5,29.9,30.31,North,355,4.0,7.0,83,0.00,,,0.00,org.tom.weather,2013-01-07 18:02:00,
2013-01-07 13:07:00,34.7,30.4,30.31,North,5,6.0,7.0,84,0.00,,,0.00,org.tom.weather,2013-01-07 18:07:00,
2013-01-07 13:12:00,34.4,30.1,30.32,NNW,337,4.0,9.0,84,0.00,,,0.00,org.tom.weather,2013-01-07 18:12:00,
2013-01-07 13:17:00,34.6,30.3,30.32,ENE,70,4.0,7.0,84,0.00,,,0.00,org.tom.weather,2013-01-07 18:17:00,
2013-01-07 13:22:00,34.3,29.7,30.32,NE,37,5.0,8.0,83,0.00,,,0.00,org.tom.weather,2013-01-07 18:22:00,
2013-01-07 13:27:00,34.0,29.7,30.32,North,360,0.0,7.0,84,0.00,,,0.00,org.tom.weather,2013-01-07 18:27:00,
2013-01-07 13:32:00,34.5,30.2,30.32,North,355,2.0,5.0,84,0.00,,,0.00,org.tom.weather,2013-01-07 18:32:00,
2013-01-07 13:37:00,34.9,30.3,30.33,NE,38,1.0,7.0,83,0.00,,,0.00,org.tom.weather,2013-01-07 18:37:00,
2013-01-07 13:42:00,34.8,30.2,30.32,NE,43,1.0,5.0,83,0.00,,,0.00,org.tom.weather,2013-01-07 18:42:00,
2013-01-07 13:47:00,34.8,29.9,30.33,NNE,19,1.0,5.0,82,0.00,,,0.00,org.tom.weather,2013-01-07 18:47:00,
2013-01-07 13:52:00,34.5,29.9,30.33,North,11,0.0,5.0,83,0.00,,,0.00,org.tom.weather,2013-01-07 18:52:00,
2013-01-07 13:57:00,34.6,30.0,30.33,NE,34,0.0,5.0,83,0.00,,,0.00,org.tom.weather,2013-01-07 18:57:00,
2013-01-07 14:02:00,34.8,29.9,30.34,NNW,346,6.0,6.0,82,0.00,,,0.00,org.tom.weather,2013-01-07 19:02:00,
2013-01-07 14:07:00,34.6,29.7,30.34,North,349,3.0,6.0,82,0.00,,,0.00,org.tom.weather,2013-01-07 19:07:00,
2013-01-07 14:12:00,34.7,30.1,30.34,NNW,342,0.0,4.0,83,0.00,,,0.00,org.tom.weather,2013-01-07 19:12:00,
2013-01-07 14:17:00,34.9,30.0,30.34,NNE,17,0.0,3.0,82,0.00,,,0.00,org.tom.weather,2013-01-07 19:17:00,
2013-01-07 14:22:00,35.0,29.8,30.33,NNE,23,0.0,4.0,81,0.00,,,0.00,org.tom.weather,2013-01-07 19:22:00,
2013-01-07 14:27:00,34.7,29.8,30.34,North,5,3.0,4.0,82,0.00,,,0.00,org.tom.weather,2013-01-07 19:27:00,
2013-01-07 14:32:00,34.5,29.6,30.34,North,5,0.0,5.0,82,0.00,,,0.00,org.tom.weather,2013-01-07 19:32:00,
2013-01-07 14:37:00,34.6,29.7,30.34,North,9,2.0,3.0,82,0.00,,,0.00,org.tom.weather,2013-01-07 19:37:00,
2013-01-07 14:42:00,34.7,29.8,30.35,North,5,2.0,5.0,82,0.00,,,0.00,org.tom.weather,2013-01-07 19:42:00,
2013-01-07 14:47:00,34.7,29.5,30.35,North,360,1.0,5.0,81,0.00,,,0.00,org.tom.weather,2013-01-07 19:47:00,
2013-01-07 14:52:00,34.8,29.6,30.35,North,9,5.0,5.0,81,0.00,,,0.00,org.tom.weather,2013-01-07 19:52:00,
2013-01-07 14:57:00,34.4,29.2,30.35,NE,34,2.0,6.0,81,0.00,,,0.00,org.tom.weather,2013-01-07 19:57:00,
2013-01-07 15:02:00,34.4,29.2,30.36,NE,38,0.0,4.0,81,0.00,,,0.00,org.tom.weather,2013-01-07 20:02:00,
2013-01-07 15:07:00,34.4,29.2,30.36,NE,40,0.0,2.0,81,0.00,,,0.00,org.tom.weather,2013-01-07 20:07:00,
2013-01-07 15:12:00,34.5,29.3,30.36,NNE,17,2.0,4.0,81,0.00,,,0.00,org.tom.weather,2013-01-07 20:12:00,
2013-01-07 15:17:00,34.4,29.2,30.36,North,349,3.0,4.0,81,0.00,,,0.00,org.tom.weather,2013-01-07 20:17:00,
2013-01-07 15:19:00,34.3,29.1,30.36,NNW,347,2.0,4.0,81,0.00,,,0.00,org.tom.weather,2013-01-07 20:19:00,
2013-01-07 15:24:00,34.4,29.2,30.37,NNW,347,0.0,4.0,81,0.00,,,0.00,org.tom.weather,2013-01-07 20:24:00,
2013-01-07 15:29:00,34.4,28.9,30.37,NNW,348,0.0,2.0,80,0.00,,,0.00,org.tom.weather,2013-01-07 20:29:00,
2013-01-07 15:34:00,34.6,29.1,30.36,NNW,348,0.0,1.0,80,0.00,,,0.00,org.tom.weather,2013-01-07 20:34:00,
2013-01-07 15:39:00,34.6,29.1,30.37,NNW,348,0.0,0.0,80,0.00,,,0.00,org.tom.weather,2013-01-07 20:39:00,
2013-01-07 15:44:00,34.4,28.9,30.37,NNW,348,0.0,1.0,80,0.00,,,0.00,org.tom.weather,2013-01-07 20:44:00,
2013-01-07 15:49:00,34.1,28.9,30.37,North,349,0.0,1.0,81,0.00,,,0.00,org.tom.weather,2013-01-07 20:49:00,
2013-01-07 15:54:00,33.9,28.7,30.37,North,349,0.0,1.0,81,0.00,,,0.00,org.tom.weather,2013-01-07 20:54:00,
2013-01-07 15:59:00,33.7,28.5,30.37,NNW,348,0.0,0.0,81,0.00,,,0.00,org.tom.weather,2013-01-07 20:59:00,
2013-01-07 16:04:00,33.4,28.5,30.38,NNW,348,0.0,0.0,82,0.00,,,0.00,org.tom.weather,2013-01-07 21:04:00,
2013-01-07 16:09:00,33.2,28.3,30.38,North,349,0.0,0.0,82,0.00,,,0.00,org.tom.weather,2013-01-07 21:09:00,
2013-01-07 16:14:00,32.9,28.3,30.38,North,349,0.0,0.0,83,0.00,,,0.00,org.tom.weather,2013-01-07 21:14:00,
2013-01-07 16:19:00,32.6,28.0,30.39,North,349,0.0,0.0,83,0.00,,,0.00,org.tom.weather,2013-01-07 21:19:00,
2013-01-07 16:24:00,32.2,27.9,30.39,North,349,0.0,0.0,84,0.00,,,0.00,org.tom.weather,2013-01-07 21:24:00,
2013-01-07 16:29:00,31.8,27.8,30.39,North,349,0.0,0.0,85,0.00,,,0.00,org.tom.weather,2013-01-07 21:29:00,
2013-01-07 16:34:00,31.4,27.4,30.39,North,349,0.0,0.0,85,0.00,,,0.00,org.tom.weather,2013-01-07 21:34:00,
2013-01-07 16:39:00,31.1,27.4,30.39,North,349,0.0,1.0,86,0.00,,,0.00,org.tom.weather,2013-01-07 21:39:00,
2013-01-07 16:44:00,30.7,27.3,30.39,North,349,0.0,1.0,87,0.00,,,0.00,org.tom.weather,2013-01-07 21:44:00,
2013-01-07 16:49:00,30.3,27.2,30.39,North,349,0.0,0.0,88,0.00,,,0.00,org.tom.weather,2013-01-07 21:49:00,
2013-01-07 16:54:00,30.1,27.0,30.39,North,349,0.0,0.0,88,0.00,,,0.00,org.tom.weather,2013-01-07 21:54:00,
2013-01-07 16:59:00,29.8,27.0,30.39,NNW,348,0.0,0.0,89,0.00,,,0.00,org.tom.weather,2013-01-07 21:59:00,
2013-01-07 17:04:00,29.5,26.7,30.39,North,349,0.0,0.0,89,0.00,,,0.00,org.tom.weather,2013-01-07 22:04:00,
2013-01-07 17:09:00,29.3,26.7,30.39,North,349,0.0,0.0,90,0.00,,,0.00,org.tom.weather,2013-01-07 22:09:00,
2013-01-07 17:14:00,29.0,26.4,30.39,North,349,0.0,0.0,90,0.00,,,0.00,org.tom.weather,2013-01-07 22:14:00,
2013-01-07 17:19:00,28.7,26.4,30.40,North,349,0.0,0.0,91,0.00,,,0.00,org.tom.weather,2013-01-07 22:19:00,
2013-01-07 17:24:00,28.5,26.5,30.40,North,349,0.0,1.0,92,0.00,,,0.00,org.tom.weather,2013-01-07 22:24:00,
2013-01-07 17:29:00,28.2,26.2,30.40,North,349,0.0,0.0,92,0.00,,,0.00,org.tom.weather,2013-01-07 22:29:00,
2013-01-07 17:34:00,28.0,26.3,30.40,North,349,0.0,1.0,93,0.00,,,0.00,org.tom.weather,2013-01-07 22:34:00,
2013-01-07 17:39:00,27.9,26.2,30.40,North,349,0.0,1.0,93,0.00,,,0.00,org.tom.weather,2013-01-07 22:39:00,
2013-01-07 17:44:00,27.7,26.0,30.40,North,349,0.0,1.0,93,0.00,,,0.00,org.tom.weather,2013-01-07 22:44:00,
2013-01-07 17:49:00,27.6,26.1,30.40,North,349,0.0,0.0,94,0.00,,,0.00,org.tom.weather,2013-01-07 22:49:00,
2013-01-07 17:54:00,27.5,26.0,30.40,North,349,0.0,0.0,94,0.00,,,0.00,org.tom.weather,2013-01-07 22:54:00,
2013-01-07 17:59:00,27.3,25.8,30.41,North,349,0.0,0.0,94,0.00,,,0.00,org.tom.weather,2013-01-07 22:59:00,
2013-01-07 18:04:00,27.2,25.7,30.41,North,349,0.0,0.0,94,0.00,,,0.00,org.tom.weather,2013-01-07 23:04:00,
2013-01-07 18:09:00,27.0,25.5,30.41,North,349,0.0,0.0,94,0.00,,,0.00,org.tom.weather,2013-01-07 23:09:00,
2013-01-07 18:14:00,27.0,25.8,30.41,North,349,0.0,0.0,95,0.00,,,0.00,org.tom.weather,2013-01-07 23:14:00,
2013-01-07 18:19:00,26.9,25.7,30.42,North,349,0.0,0.0,95,0.00,,,0.00,org.tom.weather,2013-01-07 23:19:00,
2013-01-07 18:24:00,26.7,25.5,30.43,North,349,0.0,0.0,95,0.00,,,0.00,org.tom.weather,2013-01-07 23:24:00,
2013-01-07 18:29:00,26.5,25.3,30.43,North,349,0.0,0.0,95,0.00,,,0.00,org.tom.weather,2013-01-07 23:29:00,
2013-01-07 18:34:00,26.4,25.4,30.42,North,349,0.0,0.0,96,0.00,,,0.00,org.tom.weather,2013-01-07 23:34:00,
2013-01-07 18:39:00,26.4,25.4,30.42,North,349,0.0,0.0,96,0.00,,,0.00,org.tom.weather,2013-01-07 23:39:00,
2013-01-07 18:44:00,26.4,25.4,30.42,North,349,0.0,0.0,96,0.00,,,0.00,org.tom.weather,2013-01-07 23:44:00,
2013-01-07 18:49:00,26.3,25.3,30.42,North,349,0.0,0.0,96,0.00,,,0.00,org.tom.weather,2013-01-07 23:49:00,
2013-01-07 18:54:00,26.3,25.3,30.42,North,349,0.0,0.0,96,0.00,,,0.00,org.tom.weather,2013-01-07 23:54:00,
2013-01-07 18:59:00,26.3,25.6,30.42,North,349,0.0,0.0,97,0.00,,,0.00,org.tom.weather,2013-01-07 23:59:00,
2013-01-07 19:04:00,26.2,25.2,30.42,North,349,0.0,0.0,96,0.00,,,0.00,org.tom.weather,2013-01-08 00:04:00,
2013-01-07 19:09:00,26.0,25.0,30.42,North,349,0.0,0.0,96,0.00,,,0.00,org.tom.weather,2013-01-08 00:09:00,
2013-01-07 19:14:00,25.9,25.2,30.42,North,349,0.0,0.0,97,0.00,,,0.00,org.tom.weather,2013-01-08 00:14:00,
2013-01-07 19:19:00,25.9,25.2,30.42,North,349,0.0,0.0,97,0.00,,,0.00,org.tom.weather,2013-01-08 00:19:00,
2013-01-07 19:24:00,25.9,25.2,30.42,North,349,0.0,0.0,97,0.00,,,0.00,org.tom.weather,2013-01-08 00:24:00,
2013-01-07 19:29:00,25.8,25.1,30.42,North,349,0.0,0.0,97,0.00,,,0.00,org.tom.weather,2013-01-08 00:29:00,
2013-01-07 19:34:00,25.6,24.9,30.41,North,349,0.0,0.0,97,0.00,,,0.00,org.tom.weather,2013-01-08 00:34:00,
2013-01-07 19:39:00,25.5,24.8,30.41,North,349,0.0,0.0,97,0.00,,,0.00,org.tom.weather,2013-01-08 00:39:00,
2013-01-07 19:44:00,25.4,24.9,30.42,North,349,0.0,0.0,98,0.00,,,0.00,org.tom.weather,2013-01-08 00:44:00,
2013-01-07 19:49:00,25.4,24.9,30.41,North,349,0.0,0.0,98,0.00,,,0.00,org.tom.weather,2013-01-08 00:49:00,
2013-01-07 19:54:00,25.4,24.9,30.41,North,349,0.0,0.0,98,0.00,,,0.00,org.tom.weather,2013-01-08 00:54:00,
2013-01-07 19:59:00,25.4,24.9,30.40,North,349,0.0,0.0,98,0.00,,,0.00,org.tom.weather,2013-01-08 00:59:00,
2013-01-07 20:04:00,25.2,24.7,30.41,North,349,0.0,0.0,98,0.00,,,0.00,org.tom.weather,2013-01-08 01:04:00,
2013-01-07 20:09:00,25.0,24.5,30.41,North,349,0.0,0.0,98,0.00,,,0.00,org.tom.weather,2013-01-08 01:09:00,
2013-01-07 20:14:00,24.9,24.4,30.41,North,349,0.0,0.0,98,0.00,,,0.00,org.tom.weather,2013-01-08 01:14:00,
2013-01-07 20:20:00,24.8,24.3,30.41,North,349,0.0,0.0,98,0.00,,,0.00,org.tom.weather,2013-01-08 01:20:00,
2013-01-07 20:25:00,24.7,24.2,30.41,North,349,0.0,0.0,98,0.00,,,0.00,org.tom.weather,2013-01-08 01:25:00,
2013-01-07 20:30:00,24.6,24.1,30.41,North,349,0.0,0.0,98,0.00,,,0.00,org.tom.weather,2013-01-08 01:30:00,
2013-01-07 20:35:00,24.6,24.1,30.41,North,349,0.0,0.0,98,0.00,,,0.00,org.tom.weather,2013-01-08 01:35:00,
2013-01-07 20:40:00,24.5,24.0,30.41,North,349,0.0,0.0,98,0.00,,,0.00,org.tom.weather,2013-01-08 01:40:00,
2013-01-07 20:45:00,24.4,23.9,30.41,North,349,0.0,0.0,98,0.00,,,0.00,org.tom.weather,2013-01-08 01:45:00,
2013-01-07 20:50:00,24.3,24.1,30.41,North,349,0.0,0.0,99,0.00,,,0.00,org.tom.weather,2013-01-08 01:50:00,
2013-01-07 20:55:00,24.3,24.1,30.41,North,349,0.0,0.0,99,0.00,,,0.00,org.tom.weather,2013-01-08 01:55:00,
2013-01-07 21:00:00,24.4,24.2,30.41,North,349,0.0,0.0,99,0.00,,,0.00,org.tom.weather,2013-01-08 02:00:00,
2013-01-07 21:05:00,24.4,24.2,30.41,North,349,0.0,0.0,99,0.00,,,0.00,org.tom.weather,2013-01-08 02:05:00,
2013-01-07 21:10:00,24.4,24.2,30.41,North,349,0.0,0.0,99,0.00,,,0.00,org.tom.weather,2013-01-08 02:10:00,
2013-01-07 21:15:00,24.4,24.2,30.41,North,349,0.0,0.0,99,0.00,,,0.00,org.tom.weather,2013-01-08 02:15:00,
2013-01-07 21:20:00,24.4,24.2,30.41,North,349,0.0,0.0,99,0.00,,,0.00,org.tom.weather,2013-01-08 02:20:00,
2013-01-07 21:25:00,24.3,24.1,30.41,North,349,0.0,0.0,99,0.00,,,0.00,org.tom.weather,2013-01-08 02:25:00,
2013-01-07 21:30:00,24.3,24.1,30.41,North,349,0.0,0.0,99,0.00,,,0.00,org.tom.weather,2013-01-08 02:30:00,
2013-01-07 21:35:00,24.3,24.1,30.40,North,349,0.0,0.0,99,0.00,,,0.00,org.tom.weather,2013-01-08 02:35:00,
2013-01-07 21:40:00,24.4,24.2,30.40,North,349,0.0,0.0,99,0.00,,,0.00,org.tom.weather,2013-01-08 02:40:00,
2013-01-07 21:45:00,24.6,24.4,30.40,North,349,0.0,1.0,99,0.00,,,0.00,org.tom.weather,2013-01-08 02:45:00,
2013-01-07 21:50:00,24.6,24.4,30.40,North,349,0.0,0.0,99,0.00,,,0.00,org.tom.weather,2013-01-08 02:50:00,
2013-01-07 21:55:00,24.7,24.5,30.41,North,349,0.0,0.0,99,0.00,,,0.00,org.tom.weather,2013-01-08 02:55:00,
2013-01-07 22:00:00,24.8,24.6,30.41,North,349,0.0,0.0,99,0.00,,,0.00,org.tom.weather,2013-01-08 03:00:00,
2013-01-07 22:05:00,24.7,24.5,30.41,North,349,0.0,0.0,99,0.00,,,0.00,org.tom.weather,2013-01-08 03:05:00,
2013-01-07 22:10:00,24.7,24.5,30.41,North,349,0.0,0.0,99,0.00,,,0.00,org.tom.weather,2013-01-08 03:10:00,
2013-01-07 22:15:00,24.8,24.6,30.41,North,349,0.0,0.0,99,0.00,,,0.00,org.tom.weather,2013-01-08 03:15:00,
2013-01-07 22:20:00,24.9,24.9,30.41,North,349,0.0,0.0,100,0.00,,,0.00,org.tom.weather,2013-01-08 03:20:00,
2013-01-07 22:25:00,25.1,25.1,30.41,North,349,0.0,0.0,100,0.00,,,0.00,org.tom.weather,2013-01-08 03:25:00,
2013-01-07 22:30:00,25.1,25.1,30.41,North,349,0.0,0.0,100,0.00,,,0.00,org.tom.weather,2013-01-08 03:30:00,
2013-01-07 22:35:00,25.2,25.2,30.41,North,349,0.0,0.0,100,0.00,,,0.00,org.tom.weather,2013-01-08 03:35:00,
2013-01-07 22:40:00,25.3,25.3,30.41,North,349,0.0,0.0,100,0.00,,,0.00,org.tom.weather,2013-01-08 03:40:00,
2013-01-07 22:45:00,25.5,25.5,30.40,North,349,0.0,0.0,100,0.00,,,0.00,org.tom.weather,2013-01-08 03:45:00,
2013-01-07 22:50:00,25.8,25.8,30.40,North,349,0.0,0.0,100,0.00,,,0.00,org.tom.weather,2013-01-08 03:50:00,
2013-01-07 22:55:00,25.9,25.9,30.40,North,349,0.0,0.0,100,0.00,,,0.00,org.tom.weather,2013-01-08 03:55:00,
2013-01-07 23:00:00,26.0,26.0,30.40,North,349,0.0,0.0,100,0.00,,,0.00,org.tom.weather,2013-01-08 04:00:00,
2013-01-07 23:05:00,26.3,26.3,30.40,North,349,0.0,0.0,100,0.00,,,0.00,org.tom.weather,2013-01-08 04:05:00,
2013-01-07 23:10:00,26.7,26.7,30.40,North,349,0.0,1.0,100,0.00,,,0.00,org.tom.weather,2013-01-08 04:10:00,
2013-01-07 23:15:00,27.1,27.1,30.40,North,349,0.0,0.0,100,0.00,,,0.00,org.tom.weather,2013-01-08 04:15:00,
2013-01-07 23:20:00,27.5,27.5,30.40,WSW,242,2.0,3.0,100,0.00,,,0.00,org.tom.weather,2013-01-08 04:20:00,
2013-01-07 23:25:00,28.2,28.2,30.40,SW,217,0.0,5.0,100,0.00,,,0.00,org.tom.weather,2013-01-08 04:25:00,
2013-01-07 23:30:00,28.9,28.9,30.40,South,186,0.0,5.0,100,0.00,,,0.00,org.tom.weather,2013-01-08 04:30:00,
2013-01-07 23:44:00,30.3,30.3,30.39,SSW,203,1.0,-999.0,100,0.00,,,0.00,org.tom.weather,2013-01-08 04:44:00,
2013-01-07 23:49:00,30.5,30.5,30.39,SSW,203,0.0,3.0,100,0.00,,,0.00,org.tom.weather,2013-01-08 04:49:00,
2013-01-07 23:54:00,30.7,30.5,30.39,SSW,201,1.0,5.0,99,0.00,,,0.00,org.tom.weather,2013-01-08 04:54:00,
2013-01-07 23:59:00,30.8,30.6,30.39,SSW,192,1.0,3.0,99,0.00,,,0.00,org.tom.weather,2013-01-08 04:59:00,